Flag for Ireland Weather past 2 weeks in Limerick, Ireland

Now
54 °F

Broken clouds.


Feels Like: 53 °F
Forecast: 41 / 57 °F
Wind: 3 mph from East

Location: Shannon Airport


UV Index: 0 (Low)

Visibility: N/A


Pressure: 30.01 "Hg

Humidity: 72%

Dew point: 45 °F

Location of LimerickLocation

Historic Weather in Limerick

°F

Limerick temperature yesterday

Maximum temperature yesterday: 59 °F (at 11:30 AM)
Minimum temperature yesterday: 46 °F (at 11:00 PM)
Average temperature yesterday: 52 °F

Past Weeks' High & Low Weather Summary

 TemperatureHumidityPressure
High64 °F (Apr 16, 3:00 PM)100% (Apr 11, 4:30 AM)30.39 "Hg (Apr 11, 4:30 AM)
Low36 °F (Apr 20, 5:30 AM)42% (Apr 15, 2:00 PM)29.59 "Hg (Apr 23, 3:00 AM)
Average51 °F77%30.07 "Hg
* Reported Apr 9 1:00 PM — Apr 24 1:00 PM, Limerick, Weather by CustomWeather, © 2014

Note: Actual official high and low records may vary slightly from our data, if they occured in-between our weather recording intervals... More about our weather records

Advertising

Historic Weather Conditions — Data for Previous 24 hours

 ConditionsComfort  
Time TempWeatherWind HumidityBarometerVisibility
1:00 PM
Apr 24
52 °FSprinkles. Broken clouds.20 mph77%30.04 "HgN/A
12:30 PM57 °FPassing clouds.14 mph59%30.01 "HgN/A
12:00 PM55 °FScattered clouds.8 mph63%30.01 "HgN/A
11:30 AM55 °FScattered clouds.9 mph63%30.01 "HgN/A
11:00 AM54 °FPartly sunny.9 mph72%30.04 "HgN/A
10:30 AM54 °FScattered clouds.7 mph72%30.04 "HgN/A
10:00 AM52 °FPartly sunny.8 mph82%30.04 "HgN/A
9:30 AM50 °FPartly sunny.8 mph88%30.04 "HgN/A
9:00 AM48 °FPassing clouds.8 mph87%30.04 "HgN/A
8:30 AM48 °FPassing clouds.8 mph87%30.01 "HgN/A
8:00 AM46 °FPassing clouds.8 mph87%30.01 "HgN/A
7:30 AM45 °FScattered clouds.8 mph93%30.01 "HgN/A
7:00 AM45 °FPassing clouds.6 mph93%30.01 "HgN/A
6:30 AM45 °FPassing clouds.8 mph93%29.98 "HgN/A
6:00 AM45 °FPassing clouds.8 mph93%29.98 "HgN/A
5:30 AM45 °FPassing clouds.6 mph93%29.98 "HgN/A
5:00 AM43 °FPassing clouds.8 mph93%29.98 "HgN/A
4:30 AM45 °FPassing clouds.8 mph93%29.95 "HgN/A
4:00 AM45 °FPassing clouds.10 mph93%29.95 "HgN/A
3:30 AM45 °FPassing clouds.12 mph93%29.95 "HgN/A
3:00 AM45 °FPassing clouds.9 mph93%29.95 "HgN/A
2:30 AM45 °FPassing clouds.9 mph93%29.95 "HgN/A
2:00 AM45 °FPassing clouds.9 mph93%29.95 "HgN/A
1:30 AM45 °FPassing clouds.8 mph87%29.95 "HgN/A
1:00 AM45 °FPassing clouds.10 mph87%29.95 "HgN/A
12:30 AM46 °FPassing clouds.9 mph87%29.95 "HgN/A
12:00 AM46 °FPassing clouds.12 mph87%29.95 "HgN/A
11:30 PM
Apr 23
46 °FPassing clouds.13 mph82%29.92 "HgN/A
11:00 PM46 °FPassing clouds.9 mph87%29.92 "HgN/A
10:30 PM48 °FPassing clouds.13 mph82%29.92 "HgN/A
10:00 PM48 °FPassing clouds.8 mph82%29.92 "HgN/A
9:30 PM50 °FScattered clouds.9 mph76%29.92 "HgN/A
9:00 PM50 °FScattered clouds.9 mph76%29.89 "HgN/A
8:30 PM52 °FBroken clouds.10 mph72%29.89 "HgN/A
8:00 PM52 °FBroken clouds.9 mph77%29.89 "HgN/A
7:30 PM52 °FBroken clouds.15 mph72%29.86 "HgN/A
7:00 PM54 °FPartly sunny.14 mph67%29.86 "HgN/A
6:30 PM55 °FBroken clouds.14 mph67%29.83 "HgN/A
6:00 PM54 °FBroken clouds.12 mph72%29.83 "HgN/A
5:30 PM54 °FBroken clouds.15 mph72%29.83 "HgN/A
5:00 PM54 °FScattered clouds.18 mph77%29.83 "HgN/A
4:30 PM52 °FPartly sunny.6 mph82%29.83 "HgN/A
4:00 PM54 °FBroken clouds.3 mph82%29.83 "HgN/A
3:30 PM52 °FSprinkles. Partly sunny.3 mph82%29.83 "Hg6 mi
3:00 PM50 °FSprinkles. Partly sunny.2 mph88%29.83 "Hg6 mi
2:30 PM50 °FSprinkles. Partly sunny.5 mph82%29.83 "Hg6 mi
2:00 PM54 °FScattered clouds.15 mph72%29.83 "HgN/A
1:30 PM52 °FScattered showers. Broken clouds.16 mph72%29.83 "HgN/A
1:00 PM57 °FBroken clouds.9 mph63%29.80 "HgN/A
Weather by CustomWeather, © 2014

See weather overview